COSMOS 1275 DEB, 42133

Orbit data source: Space-Track

COSMOS 1275 DEB, 42133 is space debris in LEO originally from a launch on Thu, 04 Jun 1981 UTC launched from the Plesetsk Missile And Space Complex (PKMTR). Debris objects in space refer to the collection of defunct objects orbiting the Earth. Examples of debris include non-operational satellites, rocket bodies, and fragments generated from explosions, collisions, or faulty payload assembly.

Loading next visibility...
Identifier
42133, 1981-053QV
Orbit
LEO
Country
Flag of CISCIS
Related business
Manufacturer
Unknown
Mission
Spacecraft
Bus & Motor
Unknown
Mass
Unknown
Launch date (UTC)
1981-06-04 (45 years ago)
Launch vehicle
Unknown
Launch site
Plesetsk Missile And Space Complex (PKMTR)
Object type
Payload
Rocket body
Debris
Shape & HBR
Unknown shape, 0.1 m
Radar Cross Section
Small (<0.1 m²)

Expand to show TLE details & history
Last TLE update: 3 weeks ago

TLE from 3 weeks ago
0 COSMOS 1275 DEB
1 42133U 81053QV  26202.64841680  .00000625  00000-0  73658-3 0  9994
2 42133  83.1317 346.1604 0165809  86.6441 275.3659 13.60738572124961
Epoch: 2026-07-21T15:33Z
TLE epoch observation values (Epoch: 2026-07-21T15:33:43.211Z)
Latitude
-0.00003°
Longitude
173.31526°
Altitude
1,026.425 km
Speed
7.343 km/s
True Right ascension
23h 04m 38s
True Declination
0° 00' 00"
Sunlit
Object was in full shadow at epoch
Visualization orbit readout
Latitude
Unknown
Longitude
Unknown
Altitude
Unknown
Speed
Unknown
Apparent Right ascension
Unknown
Apparent Declination
Unknown
Sunlit
N/A
Visualization observer readout
Local Sidereal Time
15:13:42
Azimuth
Unknown
Elevation
Unknown
Doppler factor
Unknown
Orbital elements
Apogee altitude
1,153.006 km
Perigee altitude
907.333 km
Semi-major axis
7,408.307 km
Eccentricity
0.01658
Inclination
83.1317°
RAAN
346.1604°
Arg. of periapsis
86.6441°
True anomaly
273.47087°
Mean anomaly
275.3659°
Eccentric anomaly
274.41871°
Mean motion
3.40381 °/min
Orbital period
105.76 mins
BSTAR
0.00073658
Loading maneuver chart data...
Computing Atmospheric mass density...

Documentation

Showing up to 5 results
|